"Data set title: Gaging station water sample data. Usage: Event based table used with water chemistry collection from 01-Oct-2018 to 30-Sep-2019",,,,,,,,,,,,
,,,,,,,,,,,,,
"Site","Date","RecNum","SiteID","Flag_SiteID","LOGGERID","PROGID","VNOTCH_INST_0_0_01","Flag_VNOTCH_INST_0_0_01","SAMPLE_INST_0_0_01","Flag_SAMPLE_INST_0_0_01","STAGE_INST_0_0_01","Flag_STAGE_INST_0_0_01"
"","yyyy-MM-dd HH:mm:ss","count","","none","none","none","none","none","count","none","ft","none"
"nominal","datetime","nominal","data","code","nominal","nominal","data","code","data","code","data","code"
"GSWS02_116",2018-10-01 03:52:45,562,102.00,"",116,24843.0,0,"",37,"",0.0240,""
"GSWS02_116",2018-10-01 17:10:45,563,102.00,"",116,24843.0,0,"",38,"",0.0240,""
"GSWS02_116",2018-10-02 06:28:45,564,102.00,"",116,24843.0,0,"",39,"",0.0220,""
"GSWS02_116",2018-10-02 16:38:00,565,102.00,"",116,24843.0,0,"",40,"",0.0220,""
"GSWS02_116",2018-10-03 07:06:30,0,102.00,"",116,59208.0,0,"",1,"",0.0220,""
"GSWS02_116",2018-10-03 20:25:15,1,102.00,"",116,25243.0,0,"",2,"",0.0220,""
"GSWS02_116",2018-10-04 09:43:15,2,102.00,"",116,25243.0,0,"",3,"",0.0220,""
"GSWS02_116",2018-10-04 23:01:15,3,102.00,"",116,25243.0,0,"",4,"",0.0220,""
"GSWS02_116",2018-10-05 12:19:15,4,102.00,"",116,25243.0,0,"",5,"",0.0220,""
"GSWS02_116",2018-10-06 01:37:15,5,102.00,"",116,25243.0,0,"",6,"",0.0940,""
"GSWS02_116",2018-10-06 14:55:15,6,102.00,"",116,25243.0,0,"",7,"",0.0420,""
"GSWS02_116",2018-10-07 04:13:15,7,102.00,"",116,25243.0,0,"",8,"",0.0300,""
"GSWS02_116",2018-10-07 17:31:15,8,102.00,"",116,25243.0,0,"",9,"",0.0280,""
"GSWS02_116",2018-10-08 06:49:15,9,102.00,"",116,25243.0,0,"",10,"",0.0260,""
"GSWS02_116",2018-10-08 20:07:15,10,102.00,"",116,25243.0,0,"",11,"",0.0280,""
"GSWS02_116",2018-10-09 09:25:15,11,102.00,"",116,25243.0,0,"",12,"",0.0300,""
"GSWS02_116",2018-10-09 22:43:15,12,102.00,"",116,25243.0,0,"",13,"",0.0280,""
"GSWS02_116",2018-10-10 12:01:15,13,102.00,"",116,25243.0,0,"",14,"",0.0260,""
"GSWS02_116",2018-10-11 01:19:15,14,102.00,"",116,25243.0,0,"",15,"",0.0260,""
"GSWS02_116",2018-10-11 14:37:15,15,102.00,"",116,25243.0,0,"",16,"",0.0250,""
"GSWS02_116",2018-10-12 03:55:15,16,102.00,"",116,25243.0,0,"",17,"",0.0250,""
"GSWS02_116",2018-10-12 17:13:15,17,102.00,"",116,25243.0,0,"",18,"",0.0250,""
"GSWS02_116",2018-10-13 06:31:15,18,102.00,"",116,25243.0,0,"",19,"",0.0250,""
"GSWS02_116",2018-10-13 19:49:15,19,102.00,"",116,25243.0,0,"",20,"",0.0250,""
"GSWS02_116",2018-10-14 09:07:15,20,102.00,"",116,25243.0,0,"",21,"",0.0240,""
"GSWS02_116",2018-10-14 22:25:15,21,102.00,"",116,25243.0,0,"",22,"",0.0240,""
"GSWS02_116",2018-10-15 11:43:15,22,102.00,"",116,25243.0,0,"",23,"",0.0240,""
"GSWS02_116",2018-10-16 01:01:15,23,102.00,"",116,25243.0,0,"",24,"",0.0240,""
"GSWS02_116",2018-10-16 14:19:15,24,102.00,"",116,25243.0,0,"",25,"",0.0240,""
"GSWS02_116",2018-10-17 03:37:15,25,102.00,"",116,25243.0,0,"",26,"",0.0240,""
"GSWS02_116",2018-10-17 16:55:15,26,102.00,"",116,25243.0,0,"",27,"",0.0240,""
"GSWS02_116",2018-10-18 06:13:15,27,102.00,"",116,25243.0,0,"",28,"",0.0240,""
"GSWS02_116",2018-10-18 19:31:15,28,102.00,"",116,25243.0,0,"",29,"",0.0240,""
"GSWS02_116",2018-10-19 08:49:15,29,102.00,"",116,25243.0,0,"",30,"",0.0240,""
"GSWS02_116",2018-10-19 22:07:15,30,102.00,"",116,25243.0,0,"",31,"",0.0240,""
"GSWS02_116",2018-10-20 11:25:15,31,102.00,"",116,25243.0,0,"",32,"",0.0240,""
"GSWS02_116",2018-10-21 00:43:15,32,102.00,"",116,25243.0,0,"",33,"",0.0240,""
"GSWS02_116",2018-10-21 14:01:15,33,102.00,"",116,25243.0,0,"",34,"",0.0240,""
"GSWS02_116",2018-10-22 03:19:15,34,102.00,"",116,25243.0,0,"",35,"",0.0240,""
"GSWS02_116",2018-10-22 16:37:15,35,102.00,"",116,25243.0,0,"",36,"",0.0240,""
"GSWS02_116",2018-10-23 05:55:15,36,102.00,"",116,25243.0,0,"",37,"",0.0240,""
"GSWS02_116",2018-10-23 16:19:15,37,102.00,"",116,25243.0,0,"",38,"",0.0230,""
"GSWS02_116",2018-10-23 19:13:15,38,102.00,"",116,25243.0,0,"",1,"",0.0230,""
"GSWS02_116",2018-10-24 08:31:15,39,102.00,"",116,25243.0,0,"",2,"",0.0230,""
"GSWS02_116",2018-10-24 21:49:15,40,102.00,"",116,25243.0,0,"",3,"",0.0230,""
"GSWS02_116",2018-10-25 11:07:15,41,102.00,"",116,25243.0,0,"",4,"",0.0230,""
"GSWS02_116",2018-10-26 00:25:15,42,102.00,"",116,25243.0,0,"",5,"",0.0230,""
"GSWS02_116",2018-10-26 13:43:15,43,102.00,"",116,25243.0,0,"",6,"",0.0320,""
"GSWS02_116",2018-10-27 03:01:15,44,102.00,"",116,25243.0,0,"",7,"",0.0270,""
"GSWS02_116",2018-10-27 16:19:15,45,102.00,"",116,25243.0,0,"",8,"",0.0260,""
"GSWS02_116",2018-10-28 05:37:15,46,102.00,"",116,25243.0,0,"",9,"",0.0410,""
"GSWS02_116",2018-10-28 18:55:15,47,102.00,"",116,25243.0,0,"",10,"",0.0810,""
"GSWS02_116",2018-10-29 08:13:15,48,102.00,"",116,25243.0,0,"",11,"",0.1050,""
"GSWS02_116",2018-10-29 21:31:15,49,102.00,"",116,25243.0,0,"",12,"",0.0670,""
"GSWS02_116",2018-10-30 10:49:15,50,102.00,"",116,25243.0,0,"",13,"",0.0430,""
"GSWS02_116",2018-10-31 00:07:15,51,102.00,"",116,25243.0,0,"",14,"",0.0350,""
"GSWS02_116",2018-10-31 13:25:15,52,102.00,"",116,25243.0,0,"",15,"",0.0890,""
"GSWS02_116",2018-11-01 02:43:15,53,102.00,"",116,25243.0,0,"",16,"",0.0850,""
"GSWS02_116",2018-11-01 16:01:15,54,102.00,"",116,25243.0,0,"",17,"",0.0600,""
"GSWS02_116",2018-11-02 05:19:15,55,102.00,"",116,25243.0,0,"",18,"",0.0460,""
"GSWS02_116",2018-11-02 18:37:15,56,102.00,"",116,25243.0,0,"",19,"",0.0660,""
"GSWS02_116",2018-11-03 07:55:15,57,102.00,"",116,25243.0,0,"",20,"",0.0490,""
"GSWS02_116",2018-11-03 21:13:15,58,102.00,"",116,25243.0,0,"",21,"",0.0430,""
"GSWS02_116",2018-11-04 10:31:15,59,102.00,"",116,25243.0,0,"",22,"",0.1460,""
"GSWS02_116",2018-11-04 23:49:15,60,102.00,"",116,25243.0,0,"",23,"",0.0640,""
"GSWS02_116",2018-11-05 13:07:15,61,102.00,"",116,25243.0,0,"",24,"",0.0550,""
"GSWS02_116",2018-11-06 02:25:15,62,102.00,"",116,25243.0,0,"",25,"",0.0490,""
"GSWS02_116",2018-11-06 15:43:15,63,102.00,"",116,25243.0,0,"",26,"",0.0450,""
"GSWS02_116",2018-11-07 05:01:15,64,102.00,"",116,25243.0,0,"",27,"",0.0410,""
"GSWS02_116",2018-11-07 18:19:15,65,102.00,"",116,25243.0,0,"",28,"",0.0390,""
"GSWS02_116",2018-11-08 07:37:15,66,102.00,"",116,25243.0,0,"",29,"",0.0370,""
"GSWS02_116",2018-11-08 16:21:30,67,102.00,"",116,25243.0,0,"",30,"",0.0370,""
"GSWS02_116",2018-11-09 17:31:30,68,102.00,"",116,25243.0,0,"",31,"",0.0340,""
"GSWS02_116",2018-11-09 17:33:00,69,102.00,"",116,25243.0,0,"",32,"",0.0340,""
"GSWS02_116",2018-11-09 17:36:00,70,102.00,"",116,25243.0,0,"",33,"",0.0340,""
"GSWS02_116",2018-11-09 18:57:30,71,102.00,"",116,25243.0,0,"",34,"",0.0330,""
"GSWS02_116",2018-11-10 08:15:30,72,102.00,"",116,25243.0,0,"",35,"",0.0320,""
"GSWS02_116",2018-11-10 21:33:30,73,102.00,"",116,25243.0,0,"",36,"",0.0320,""
"GSWS02_116",2018-11-11 10:51:30,74,102.00,"",116,25243.0,0,"",37,"",0.0320,""
"GSWS02_116",2018-11-12 00:09:30,75,102.00,"",116,25243.0,0,"",38,"",0.0310,""
"GSWS02_116",2018-11-12 13:27:30,76,102.00,"",116,25243.0,0,"",39,"",0.0300,""
"GSWS02_116",2018-11-13 02:45:30,77,102.00,"",116,25243.0,0,"",40,"",0.0300,""
"GSWS02_116",2018-11-13 16:03:30,78,102.00,"",116,25243.0,0,"",41,"",0.0300,""
"GSWS02_116",2018-11-13 18:56:15,79,102.00,"",116,25243.0,0,"",42,"",0.0290,""
"GSWS02_116",2018-11-14 05:21:30,80,102.00,"",116,25243.0,0,"",1,"",0.0290,""
"GSWS02_116",2018-11-14 18:39:30,81,102.00,"",116,25243.0,0,"",2,"",0.0290,""
"GSWS02_116",2018-11-15 07:57:30,82,102.00,"",116,25243.0,0,"",3,"",0.0290,""
"GSWS02_116",2018-11-15 21:15:30,83,102.00,"",116,25243.0,0,"",4,"",0.0290,""
"GSWS02_116",2018-11-16 10:33:30,84,102.00,"",116,25243.0,0,"",5,"",0.0280,""
"GSWS02_116",2018-11-16 23:51:30,85,102.00,"",116,25243.0,0,"",6,"",0.0280,""
"GSWS02_116",2018-11-17 13:09:30,86,102.00,"",116,25243.0,0,"",7,"",0.0280,""
"GSWS02_116",2018-11-18 02:27:30,87,102.00,"",116,25243.0,0,"",8,"",0.0280,""
"GSWS02_116",2018-11-18 15:45:30,88,102.00,"",116,25243.0,0,"",9,"",0.0280,""
"GSWS02_116",2018-11-19 05:03:30,89,102.00,"",116,25243.0,0,"",10,"",0.0280,""
"GSWS02_116",2018-11-19 18:21:30,90,102.00,"",116,25243.0,0,"",11,"",0.0270,""
"GSWS02_116",2018-11-20 07:39:30,91,102.00,"",116,25243.0,0,"",12,"",0.0270,""
"GSWS02_116",2018-11-20 20:57:30,92,102.00,"",116,25243.0,0,"",13,"",0.0270,""
"GSWS02_116",2018-11-21 10:15:30,93,102.00,"",116,25243.0,0,"",14,"",0.0270,""
"GSWS02_116",2018-11-21 23:33:30,94,102.00,"",116,25243.0,0,"",15,"",0.0300,""
"GSWS02_116",2018-11-22 12:51:30,95,102.00,"",116,25243.0,0,"",16,"",0.0300,""
"GSWS02_116",2018-11-23 02:09:30,96,102.00,"",116,25243.0,0,"",17,"",0.1070,""
"GSWS02_116",2018-11-23 15:27:30,97,102.00,"",116,25243.0,0,"",18,"",0.1360,""
"GSWS02_116",2018-11-24 04:45:30,98,102.00,"",116,25243.0,0,"",19,"",0.1130,""
"GSWS02_116",2018-11-24 18:03:30,99,102.00,"",116,25243.0,0,"",20,"",0.0800,""
"GSWS02_116",2018-11-25 07:21:30,100,102.00,"",116,25243.0,0,"",21,"",0.0640,""
"GSWS02_116",2018-11-25 20:39:30,101,102.00,"",116,25243.0,0,"",22,"",0.0560,""
"GSWS02_116",2018-11-26 09:57:30,102,102.00,"",116,25243.0,0,"",23,"",0.0510,""
"GSWS02_116",2018-11-26 23:15:30,103,102.00,"",116,25243.0,0,"",24,"",0.0480,""
"GSWS02_116",2018-11-27 10:01:00,104,102.00,"",116,25243.0,0,"",25,"",0.2960,""
"GSWS02_116",2018-11-27 23:19:00,105,102.00,"",116,25243.0,0,"",26,"",0.2210,""
"GSWS02_116",2018-11-28 12:37:00,106,102.00,"",116,25243.0,0,"",27,"",0.1850,""
"GSWS02_116",2018-11-29 01:55:00,107,102.00,"",116,25243.0,0,"",28,"",0.1430,""
"GSWS02_116",2018-11-29 15:13:00,108,102.00,"",116,25243.0,0,"",29,"",0.1180,""
"GSWS02_116",2018-11-30 04:31:00,109,102.00,"",116,25243.0,0,"",30,"",0.1080,""
"GSWS02_116",2018-11-30 17:49:00,110,102.00,"",116,25243.0,0,"",31,"",0.1520,""
"GSWS02_116",2018-12-01 07:07:00,111,102.00,"",116,25243.0,0,"",32,"",0.1370,""
"GSWS02_116",2018-12-01 20:25:00,112,102.00,"",116,25243.0,0,"",33,"",0.1390,""
"GSWS02_116",2018-12-02 09:43:00,113,102.00,"",116,25243.0,0,"",34,"",0.1290,""
"GSWS02_116",2018-12-02 23:01:00,114,102.00,"",116,25243.0,0,"",35,"",0.1160,""
"GSWS02_116",2018-12-03 12:19:00,115,102.00,"",116,25243.0,0,"",36,"",0.1040,""
"GSWS02_116",2018-12-04 01:37:00,116,102.00,"",116,25243.0,0,"",37,"",0.0950,""
"GSWS02_116",2018-12-04 14:55:00,117,102.00,"",116,25243.0,0,"",38,"",0.0880,""
"GSWS02_116",2018-12-04 17:38:45,118,102.00,"",116,25243.0,0,"",39,"",0.0850,""
"GSWS02_116",2018-12-04 17:41:00,119,102.00,"",116,25243.0,0,"",40,"",0.0850,""
"GSWS02_116",2018-12-04 17:41:15,120,102.00,"",116,25243.0,0,"",41,"",0.0850,""
"GSWS02_116",2018-12-04 17:43:30,121,102.00,"",116,25243.0,0,"",42,"",0.0850,""
"GSWS02_116",2018-12-05 04:13:00,122,102.00,"",116,25243.0,0,"",1,"",0.0870,""
"GSWS02_116",2018-12-05 17:31:00,123,102.00,"",116,25243.0,0,"",2,"",0.0810,""
"GSWS02_116",2018-12-06 06:49:00,124,102.00,"",116,25243.0,0,"",3,"",0.0770,""
"GSWS02_116",2018-12-06 20:07:00,125,102.00,"",116,25243.0,0,"",4,"",0.0730,""
"GSWS02_116",2018-12-07 09:25:00,126,102.00,"",116,25243.0,0,"",5,"",0.0700,""
"GSWS02_116",2018-12-07 22:43:00,127,102.00,"",116,25243.0,0,"",6,"",0.0670,""
"GSWS02_116",2018-12-08 12:01:00,128,102.00,"",116,25243.0,0,"",7,"",0.0670,""
"GSWS02_116",2018-12-09 01:19:00,129,102.00,"",116,25243.0,0,"",8,"",0.0640,""
"GSWS02_116",2018-12-09 14:37:00,130,102.00,"",116,25243.0,0,"",9,"",0.0620,""
"GSWS02_116",2018-12-10 03:55:00,131,102.00,"",116,25243.0,0,"",10,"",0.1080,""
"GSWS02_116",2018-12-10 17:13:00,132,102.00,"",116,25243.0,0,"",11,"",0.0930,""
"GSWS02_116",2018-12-11 06:31:00,133,102.00,"",116,25243.0,0,"",12,"",0.0870,""
"GSWS02_116",2018-12-11 19:49:00,134,102.00,"",116,25243.0,0,"",13,"",0.2880,""
"GSWS02_116",2018-12-12 09:07:00,135,102.00,"",116,25243.0,0,"",14,"",0.2260,""
"GSWS02_116",2018-12-12 22:25:00,136,102.00,"",116,25243.0,0,"",15,"",0.1850,""
"GSWS02_116",2018-12-13 11:43:00,137,102.00,"",116,25243.0,0,"",16,"",0.1580,""
"GSWS02_116",2018-12-14 01:01:00,138,102.00,"",116,25243.0,0,"",17,"",0.1400,""
"GSWS02_116",2018-12-14 14:19:00,139,102.00,"",116,25243.0,0,"",18,"",0.1270,""
"GSWS02_116",2018-12-15 03:37:00,140,102.00,"",116,25243.0,0,"",19,"",0.1240,""
"GSWS02_116",2018-12-15 16:55:00,141,102.00,"",116,25243.0,0,"",20,"",0.1130,""
"GSWS02_116",2018-12-16 06:13:00,142,102.00,"",116,25243.0,0,"",21,"",0.1070,""
"GSWS02_116",2018-12-16 19:31:00,143,102.00,"",116,25243.0,0,"",22,"",0.1180,""
"GSWS02_116",2018-12-17 08:49:00,144,102.00,"",116,25243.0,0,"",23,"",0.1060,""
"GSWS02_116",2018-12-17 22:07:00,145,102.00,"",116,25243.0,0,"",24,"",0.1260,""
"GSWS02_116",2018-12-18 07:34:15,146,102.00,"",116,25243.0,0,"",25,"",0.2960,""
"GSWS02_116",2018-12-18 14:12:15,147,102.00,"",116,25243.0,0,"",26,"",0.4020,""
"GSWS02_116",2018-12-18 20:50:15,148,102.00,"",116,25243.0,0,"",27,"",0.3570,""
"GSWS02_116",2018-12-19 03:28:15,149,102.00,"",116,25243.0,0,"",28,"",0.3160,""
"GSWS02_116",2018-12-19 16:46:15,150,102.00,"",116,25243.0,0,"",29,"",0.2520,""
"GSWS02_116",2018-12-20 06:04:15,151,102.00,"",116,25243.0,0,"",30,"",0.2190,""
"GSWS02_116",2018-12-20 19:22:15,152,102.00,"",116,25243.0,0,"",31,"",0.2420,""
"GSWS02_116",2018-12-21 08:40:15,153,102.00,"",116,25243.0,0,"",32,"",0.2230,""
"GSWS02_116",2018-12-21 21:58:15,154,102.00,"",116,25243.0,0,"",33,"",0.2050,""
"GSWS02_116",2018-12-22 11:16:15,155,102.00,"",116,25243.0,0,"",34,"",0.1890,""
"GSWS02_116",2018-12-23 00:34:15,156,102.00,"",116,25243.0,0,"",35,"",0.2120,""
"GSWS02_116",2018-12-23 13:52:15,157,102.00,"",116,25243.0,0,"",36,"",0.2710,""
"GSWS02_116",2018-12-23 20:30:15,158,102.00,"",116,25243.0,0,"",37,"",0.3340,""
"GSWS02_116",2018-12-24 03:08:15,159,102.00,"",116,25243.0,0,"",38,"",0.4350,""
"GSWS02_116",2018-12-24 07:34:15,160,102.00,"",116,25243.0,0,"",39,"",0.4400,""
"GSWS02_116",2018-12-24 14:12:15,161,102.00,"",116,25243.0,0,"",40,"",0.4170,""
"GSWS02_116",2018-12-24 20:50:15,162,102.00,"",116,25243.0,0,"",41,"",0.3790,""
"GSWS02_116",2018-12-25 03:28:15,163,102.00,"",116,25243.0,0,"",42,"",0.3480,""
"GSWS02_116",2018-12-25 10:06:15,164,102.00,"",116,25243.0,0,"",43,"",0.3190,""
"GSWS02_116",2018-12-25 23:24:15,165,102.00,"",116,25243.0,0,"",44,"",0.2740,""
"GSWS02_116",2018-12-26 12:42:15,166,102.00,"",116,25243.0,0,"",45,"",0.2470,""
"GSWS02_116",2018-12-27 02:00:15,167,102.00,"",116,25243.0,0,"",46,"",0.2530,""
"GSWS02_116",2018-12-27 15:18:15,168,102.00,"",116,25243.0,0,"",47,"",0.2380,""
"GSWS02_116",2018-12-27 16:28:45,169,102.00,"",116,25243.0,0,"",48,"",0.2360,""
"GSWS02_116",2018-12-28 04:36:15,170,102.00,"",116,25243.0,0,"",1,"",0.2210,""
"GSWS02_116",2018-12-28 17:54:15,171,102.00,"",116,25243.0,0,"",2,"",0.2060,""
"GSWS02_116",2018-12-29 07:12:15,172,102.00,"",116,25243.0,0,"",3,"",0.1920,""
"GSWS02_116",2018-12-29 20:30:15,173,102.00,"",116,25243.0,0,"",4,"",0.1880,""
"GSWS02_116",2018-12-30 09:48:15,174,102.00,"",116,25243.0,0,"",5,"",0.2550,""
"GSWS02_116",2018-12-30 23:06:15,175,102.00,"",116,25243.0,0,"",6,"",0.2420,""
"GSWS02_116",2018-12-31 12:24:15,176,102.00,"",116,25243.0,0,"",7,"",0.2270,""
"GSWS02_116",2019-01-01 01:42:15,177,102.00,"",116,25243.0,0,"",8,"",0.2110,""
"GSWS02_116",2019-01-01 15:00:15,178,102.00,"",116,25243.0,0,"",9,"",0.1980,""
"GSWS02_116",2019-01-02 04:18:15,179,102.00,"",116,25243.0,0,"",10,"",0.1870,""
"GSWS02_116",2019-01-02 17:36:15,180,102.00,"",116,25243.0,0,"",11,"",0.1760,""
"GSWS02_116",2019-01-03 06:54:15,181,102.00,"",116,25243.0,0,"",12,"",0.1650,""
"GSWS02_116",2019-01-03 20:12:15,182,102.00,"",116,25243.0,0,"",13,"",0.1560,""
"GSWS02_116",2019-01-04 09:30:15,183,102.00,"",116,25243.0,0,"",14,"",0.1460,""
"GSWS02_116",2019-01-04 22:48:15,184,102.00,"",116,25243.0,0,"",15,"",0.1380,""
"GSWS02_116",2019-01-05 12:06:15,185,102.00,"",116,25243.0,0,"",16,"",0.1320,""
"GSWS02_116",2019-01-06 01:24:15,186,102.00,"",116,25243.0,0,"",17,"",0.1300,""
"GSWS02_116",2019-01-06 14:42:15,187,102.00,"",116,25243.0,0,"",18,"",0.1410,""
"GSWS02_116",2019-01-07 04:00:15,188,102.00,"",116,25243.0,0,"",19,"",0.1300,""
"GSWS02_116",2019-01-07 17:18:15,189,102.00,"",116,25243.0,0,"",20,"",0.1200,""
"GSWS02_116",2019-01-08 06:36:15,190,102.00,"",116,25243.0,0,"",21,"",0.1420,""
"GSWS02_116",2019-01-08 19:54:15,191,102.00,"",116,25243.0,0,"",22,"",0.1320,""
"GSWS02_116",2019-01-09 09:12:15,192,102.00,"",116,25243.0,0,"",23,"",0.1310,""
"GSWS02_116",2019-01-09 22:30:15,193,102.00,"",116,25243.0,0,"",24,"",0.1370,""
"GSWS02_116",2019-01-10 11:48:15,194,102.00,"",116,25243.0,0,"",25,"",0.1250,""
"GSWS02_116",2019-01-11 01:06:15,195,102.00,"",116,25243.0,0,"",26,"",0.1220,""
"GSWS02_116",2019-01-11 14:24:15,196,102.00,"",116,25243.0,0,"",27,"",0.1180,""
"GSWS02_116",2019-01-12 03:42:15,197,102.00,"",116,25243.0,0,"",28,"",0.1140,""
"GSWS02_116",2019-01-12 17:00:15,198,102.00,"",116,25243.0,0,"",29,"",0.1110,""
"GSWS02_116",2019-01-13 06:18:15,199,102.00,"",116,25243.0,0,"",30,"",0.1070,""
"GSWS02_116",2019-01-13 19:36:15,200,102.00,"",116,25243.0,0,"",31,"",0.1040,""
"GSWS02_116",2019-01-14 08:54:15,201,102.00,"",116,25243.0,0,"",32,"",0.1010,""
"GSWS02_116",2019-01-14 22:12:15,202,102.00,"",116,25243.0,0,"",33,"",0.0990,""
"GSWS02_116",2019-01-15 11:30:15,203,102.00,"",116,25243.0,0,"",34,"",0.0960,""
"GSWS02_116",2019-01-16 00:48:15,204,102.00,"",116,25243.0,0,"",35,"",0.0950,""
"GSWS02_116",2019-01-16 13:03:45,205,102.00,"",116,25243.0,0,"",36,"",0.0930,""
"GSWS02_116",2019-01-16 14:06:15,206,102.00,"",116,25243.0,0,"",1,"",0.0920,""
"GSWS02_116",2019-01-17 03:24:15,207,102.00,"",116,25243.0,0,"",2,"",0.0920,""
"GSWS02_116",2019-01-17 16:42:15,208,102.00,"",116,25243.0,0,"",3,"",0.0960,""
"GSWS02_116",2019-01-18 06:00:15,209,102.00,"",116,25243.0,0,"",4,"",0.0870,""
"GSWS02_116",2019-01-18 19:18:15,210,102.00,"",116,25243.0,0,"",5,"",0.2710,""
"GSWS02_116",2019-01-19 01:56:15,211,102.00,"",116,25243.0,0,"",6,"",0.4350,""
"GSWS02_116",2019-01-19 06:22:15,212,102.00,"",116,25243.0,0,"",7,"",0.5090,""
"GSWS02_116",2019-01-19 10:48:15,213,102.00,"",116,25243.0,0,"",8,"",0.4960,""
"GSWS02_116",2019-01-19 15:14:15,214,102.00,"",116,25243.0,0,"",9,"",0.4730,""
"GSWS02_116",2019-01-19 19:40:15,215,102.00,"",116,25243.0,0,"",10,"",0.4490,""
"GSWS02_116",2019-01-20 02:18:15,216,102.00,"",116,25243.0,0,"",11,"",0.4310,""
"GSWS02_116",2019-01-20 06:44:15,217,102.00,"",116,25243.0,0,"",12,"",0.4460,""
"GSWS02_116",2019-01-20 13:22:15,218,102.00,"",116,25243.0,0,"",13,"",0.4200,""
"GSWS02_116",2019-01-20 20:00:15,219,102.00,"",116,25243.0,0,"",14,"",0.3990,""
"GSWS02_116",2019-01-21 02:38:15,220,102.00,"",116,25243.0,0,"",15,"",0.3720,""
"GSWS02_116",2019-01-21 09:16:15,221,102.00,"",116,25243.0,0,"",16,"",0.3450,""
"GSWS02_116",2019-01-21 15:54:15,222,102.00,"",116,25243.0,0,"",17,"",0.3200,""
"GSWS02_116",2019-01-21 22:32:15,223,102.00,"",116,25243.0,0,"",18,"",0.2990,""
"GSWS02_116",2019-01-22 11:50:15,224,102.00,"",116,25243.0,0,"",19,"",0.2650,""
"GSWS02_116",2019-01-23 01:08:15,225,102.00,"",116,25243.0,0,"",20,"",0.2720,""
"GSWS02_116",2019-01-23 07:46:15,226,102.00,"",116,25243.0,0,"",21,"",0.3150,""
"GSWS02_116",2019-01-23 14:24:15,227,102.00,"",116,25243.0,0,"",22,"",0.3150,""
"GSWS02_116",2019-01-23 21:02:15,228,102.00,"",116,25243.0,0,"",23,"",0.3100,""
"GSWS02_116",2019-01-24 03:40:15,229,102.00,"",116,25243.0,0,"",24,"",0.3000,""
"GSWS02_116",2019-01-24 16:58:15,230,102.00,"",116,25243.0,0,"",25,"",0.2780,""
"GSWS02_116",2019-01-25 06:16:15,231,102.00,"",116,25243.0,0,"",26,"",0.2550,""
"GSWS02_116",2019-01-25 19:34:15,232,102.00,"",116,25243.0,0,"",27,"",0.2340,""
"GSWS02_116",2019-01-26 08:52:15,233,102.00,"",116,25243.0,0,"",28,"",0.2170,""
"GSWS02_116",2019-01-26 22:10:15,234,102.00,"",116,25243.0,0,"",29,"",0.2040,""
"GSWS02_116",2019-01-27 11:28:15,235,102.00,"",116,25243.0,0,"",30,"",0.1920,""
"GSWS02_116",2019-01-28 00:46:15,236,102.00,"",116,25243.0,0,"",31,"",0.1810,""
"GSWS02_116",2019-01-28 14:04:15,237,102.00,"",116,25243.0,0,"",32,"",0.1710,""
"GSWS02_116",2019-01-29 03:22:15,238,102.00,"",116,25243.0,0,"",33,"",0.1610,""
"GSWS02_116",2019-01-29 16:40:15,239,102.00,"",116,25243.0,0,"",34,"",0.1520,""
"GSWS02_116",2019-01-30 05:58:15,240,102.00,"",116,25243.0,0,"",35,"",0.1440,""
"GSWS02_116",2019-01-30 19:16:15,241,102.00,"",116,25243.0,0,"",36,"",0.1370,""
"GSWS02_116",2019-01-31 08:34:15,242,102.00,"",116,25243.0,0,"",37,"",0.1300,""
"GSWS02_116",2019-01-31 21:52:15,243,102.00,"",116,25243.0,0,"",38,"",0.1250,""
"GSWS02_116",2019-02-01 11:10:15,244,102.00,"",116,25243.0,0,"",39,"",0.1210,""
"GSWS02_116",2019-02-02 00:28:15,245,102.00,"",116,25243.0,0,"",40,"",0.1180,""
"GSWS02_116",2019-02-02 13:46:15,246,102.00,"",116,25243.0,0,"",41,"",0.1140,""
"GSWS02_116",2019-02-03 03:04:15,247,102.00,"",116,25243.0,0,"",42,"",0.1470,""
"GSWS02_116",2019-02-03 16:22:15,248,102.00,"",116,25243.0,0,"",43,"",0.1230,""
"GSWS02_116",2019-02-04 05:40:15,249,102.00,"",116,25243.0,0,"",44,"",0.1180,""
"GSWS02_116",2019-02-04 18:58:15,250,102.00,"",116,25243.0,0,"",45,"",0.1120,""
"GSWS02_116",2019-02-05 08:16:15,251,102.00,"",116,25243.0,0,"",46,"",0.1080,""
"GSWS02_116",2019-02-05 16:21:15,252,102.00,"",116,25243.0,0,"",47,"",0.1050,""
"GSWS02_116",2019-02-05 21:34:15,253,102.00,"",116,25243.0,0,"",1,"",0.1070,""
"GSWS02_116",2019-02-06 10:52:15,254,102.00,"",116,25243.0,0,"",2,"",0.1020,""
"GSWS02_116",2019-02-07 00:10:15,255,102.00,"",116,25243.0,0,"",3,"",0.1000,""
"GSWS02_116",2019-02-07 13:28:15,256,102.00,"",116,25243.0,0,"",4,"",0.0970,""
"GSWS02_116",2019-02-07 13:28:30,257,102.00,"",116,25243.0,0,"",5,"",0.0970,""
"GSWS02_116",2019-02-08 02:46:15,258,102.00,"",116,25243.0,0,"",6,"",0.0960,""
"GSWS02_116",2019-02-08 16:04:15,259,102.00,"",116,25243.0,0,"",7,"",0.0960,""
"GSWS02_116",2019-02-09 05:22:15,260,102.00,"",116,25243.0,0,"",8,"",0.0980,""
"GSWS02_116",2019-02-09 18:40:15,261,102.00,"",116,25243.0,0,"",9,"",0.0950,""
"GSWS02_116",2019-02-10 07:58:15,262,102.00,"",116,25243.0,0,"",10,"",0.0920,""
"GSWS02_116",2019-02-10 21:16:15,263,102.00,"",116,25243.0,0,"",11,"",0.0910,""
"GSWS02_116",2019-02-11 10:34:15,264,102.00,"",116,25243.0,0,"",12,"",0.0930,""
"GSWS02_116",2019-02-11 23:52:15,265,102.00,"",116,25243.0,0,"",13,"",0.1020,""
"GSWS02_116",2019-02-12 13:10:15,266,102.00,"",116,25243.0,0,"",14,"",0.1110,""
"GSWS02_116",2019-02-13 02:28:15,267,102.00,"",116,25243.0,0,"",15,"",0.1330,""
"GSWS02_116",2019-02-13 15:46:15,268,102.00,"",116,25243.0,0,"",16,"",0.1720,""
"GSWS02_116",2019-02-14 05:04:15,269,102.00,"",116,25243.0,0,"",17,"",0.1860,""
"GSWS02_116",2019-02-14 18:22:15,270,102.00,"",116,25243.0,0,"",18,"",0.2620,""
"GSWS02_116",2019-02-15 07:40:15,271,102.00,"",116,25243.0,0,"",19,"",0.2530,""
"GSWS02_116",2019-02-15 20:58:15,272,102.00,"",116,25243.0,0,"",20,"",0.2250,""
"GSWS02_116",2019-02-16 10:16:15,273,102.00,"",116,25243.0,0,"",21,"",0.2080,""
"GSWS02_116",2019-02-16 23:34:15,274,102.00,"",116,25243.0,0,"",22,"",0.1960,""
"GSWS02_116",2019-02-17 12:52:15,275,102.00,"",116,25243.0,0,"",23,"",0.1830,""
"GSWS02_116",2019-02-18 02:10:15,276,102.00,"",116,25243.0,0,"",24,"",0.1690,""
"GSWS02_116",2019-02-18 15:28:15,277,102.00,"",116,25243.0,0,"",25,"",0.1600,""
"GSWS02_116",2019-02-19 04:46:15,278,102.00,"",116,25243.0,0,"",26,"",0.1540,""
"GSWS02_116",2019-02-19 18:04:15,279,102.00,"",116,25243.0,0,"",27,"",0.1520,""
"GSWS02_116",2019-02-20 07:22:15,280,102.00,"",116,25243.0,0,"",28,"",0.1480,""
"GSWS02_116",2019-02-20 20:40:15,281,102.00,"",116,25243.0,0,"",29,"",0.1440,""
"GSWS02_116",2019-02-21 09:58:15,282,102.00,"",116,25243.0,0,"",30,"",0.1350,""
"GSWS02_116",2019-02-21 23:16:15,283,102.00,"",116,25243.0,0,"",31,"",0.1310,""
"GSWS02_116",2019-02-22 12:34:15,284,102.00,"",116,25243.0,0,"",32,"",0.1260,""
"GSWS02_116",2019-02-23 01:52:15,285,102.00,"",116,25243.0,0,"",33,"",0.1250,""
"GSWS02_116",2019-02-23 15:10:15,286,102.00,"",116,25243.0,0,"",34,"",0.1450,""